Weather History for Ypsilanti, MI

Change the Weather History Date:

Saturday, January 1, 2005

  Actual Average Record
Temperature  
Mean Temperature 32 °F -  
Max Temperature 39 °F 32 °F 54 °F (2011)
Min Temperature 25 °F 19 °F 5 °F (1977)
Degree Days  
Heating Degree Days 33    
Moisture  
Dew Point 24 °F    
Average Humidity 75    
Maximum Humidity 93    
Minimum Humidity 57    
Precipitation  
Precipitation 0.02 in - - ()
Sea Level Pressure  
Sea Level Pressure 30.44 in    
Wind  
Wind Speed 8 mph (NE)    
Max Wind Speed 15 mph    
Max Gust Speed -    
Visibility 10 miles    
Events Rain    
Averages and records for this station are not official NWS values.
T = Trace of Precipitation, MM = Missing Value Source: NWS Daily Summary

Daily Weather History Graph

Daily Weather History Graph

Search for Another Location

Airport:

Trip Planner

Search our weather history database for the weather conditions in past years. The results will help you decide how hot, cold, wet, or windy it might be!

Date:

Astronomy

Jan. 01, 2005 Rise Set
Actual Time 8:03 AM EST 5:12 PM EST
Civil Twilight 7:31 AM EST 5:44 PM EST
Nautical Twilight 6:56 AM EST 6:19 PM EST
Astronomical Twilight 6:22 AM EST 6:53 PM EST
Moon 11:08 PM EST (1/1) 11:36 AM EST (1/1)
Length of Visible Light 10h 13m
Length of Day
9h 09m
Waning Gibbous, 70% of the Moon is Illuminated
Jan 1
Waning Gibbous
Jan 3
Last Quarter
Jan 10
New
Jan 17
First Quarter
Jan 25
Full

Hourly Weather History & Observations

Time (EST) Temp. Windchill Dew Point Humidity Pressure Visibility Wind Dir Wind Speed Gust Speed Precip Events Conditions
12:53 AM 39.0 °F 32.8 °F 28.0 °F 65% 30.24 in 10.0 mi NW 9.2 mph - N/A   Clear
1:53 AM 35.1 °F 27.4 °F 25.0 °F 67% 30.26 in 10.0 mi WNW 10.4 mph - N/A   Clear
2:53 AM 33.1 °F 25.5 °F 23.0 °F 66% 30.29 in 10.0 mi NW 9.2 mph - N/A   Clear
3:53 AM 28.9 °F 21.9 °F 21.0 °F 72% 30.33 in 10.0 mi NW 6.9 mph - N/A   Clear
4:53 AM 28.0 °F 20.0 °F 19.0 °F 69% 30.35 in 10.0 mi NW 8.1 mph - N/A   Clear
5:53 AM 27.0 °F 23.0 °F 19.9 °F 75% 30.39 in 10.0 mi NNW 3.5 mph - N/A   Clear
6:53 AM 26.1 °F 20.5 °F 19.9 °F 78% 30.42 in 10.0 mi NNW 4.6 mph - N/A   Clear
7:53 AM 25.0 °F 18.1 °F 19.9 °F 81% 30.45 in 10.0 mi NNW 5.8 mph - N/A   Clear
8:53 AM 28.9 °F 23.9 °F 24.1 °F 82% 30.48 in 10.0 mi NNW 4.6 mph - N/A   Clear
9:53 AM 30.0 °F 25.2 °F 21.9 °F 72% 30.50 in 10.0 mi North 4.6 mph - N/A   Clear
10:53 AM 30.9 °F 24.3 °F 21.9 °F 69% 30.52 in 10.0 mi NE 6.9 mph - N/A   Clear
11:53 AM 33.1 °F - 21.0 °F 61% 30.53 in 10.0 mi Calm Calm - N/A   Clear
12:53 PM 34.0 °F 28.0 °F 21.9 °F 61% 30.51 in 10.0 mi Variable 6.9 mph - N/A   Clear
1:53 PM 35.1 °F 27.9 °F 21.9 °F 59% 30.49 in 10.0 mi NE 9.2 mph - N/A   Clear
2:53 PM 35.1 °F 26.4 °F 21.0 °F 57% 30.49 in 10.0 mi ENE 12.7 mph - N/A   Clear
4:53 PM 34.0 °F 27.2 °F 21.9 °F 61% 30.52 in 10.0 mi East 8.1 mph - N/A   Mostly Cloudy
5:53 PM 34.0 °F 25.0 °F 24.1 °F 67% 30.52 in 10.0 mi East 12.7 mph - N/A   Overcast
6:53 PM 33.1 °F 24.9 °F 27.0 °F 78% 30.52 in 10.0 mi East 10.4 mph - 0.00 in Rain Light Rain
7:53 PM 32.0 °F 23.6 °F 27.0 °F 82% 30.52 in 10.0 mi East 10.4 mph - 0.00 in   Overcast
8:34 PM 30.2 °F 19.3 °F 26.6 °F 86% 30.47 in 10.0 mi East 15.0 mph - 0.01 in Rain Light Freezing Rain
8:53 PM 30.9 °F 21.7 °F 28.0 °F 89% 30.49 in 10.0 mi East 11.5 mph - 0.01 in   Overcast
9:53 PM 32.0 °F 23.6 °F 28.0 °F 85% 30.48 in 10.0 mi East 10.4 mph - 0.00 in   Overcast
10:53 PM 32.0 °F 23.6 °F 28.9 °F 88% 30.45 in 7.0 mi East 10.4 mph - 0.00 in Rain Light Freezing Rain
11:18 PM 32.0 °F 24.2 °F 30.2 °F 93% 30.42 in 7.0 mi East 9.2 mph - 0.00 in   Overcast
11:29 PM 32.0 °F 24.8 °F 30.2 °F 93% 30.42 in 6.0 mi East 8.1 mph - 0.01 in   Overcast
11:53 PM 32.0 °F 23.6 °F 30.0 °F 92% 30.43 in 10.0 mi East 10.4 mph - 0.01 in   Overcast